,,PA_Meas_PMT16A,,PR_Meas_QMR101_102,,RH_Meas_QMH101,,SR_Meas_QMS101,,TA_Meas_QMH101,,GenWind,,GenWind,
time,status,PA,status,PR,status,RH,status,SR,status,TA,status,DirAvg,status,SpdAvg,
2015-01-14, 00:00:04,VALID,918.72,VALID,0,VALID,95.7272,VALID,0,VALID,20.0733,VALID,135,VALID,0,
2015-01-14, 00:01:04,VALID,918.698,VALID,0,VALID,95.7501,VALID,0,VALID,20.0523,VALID,135,VALID,0,
2015-01-14, 00:02:04,VALID,918.701,VALID,0,VALID,95.7272,VALID,0,VALID,20.0733,VALID,135,VALID,0,
2015-01-14, 00:03:04,VALID,918.686,VALID,0,VALID,95.7425,VALID,0,VALID,20.0523,VALID,135,VALID,0,
2015-01-14, 00:04:04,VALID,918.647,VALID,0,VALID,95.7654,VALID,0,VALID,20.0523,VALID,135,VALID,0,
2015-01-14, 00:05:04,VALID,918.647,VALID,0,VALID,95.7577,VALID,0,VALID,20.0733,VALID,135,VALID,0,
2015-01-14, 00:06:04,VALID,918.621,VALID,0,VALID,95.7806,VALID,0,VALID,20.0538,VALID,135,VALID,0,
2015-01-14, 00:07:04,VALID,918.611,VALID,0,VALID,95.773,VALID,0,VALID,20.0538,VALID,135,VALID,0,
2015-01-14, 00:08:04,VALID,918.604,VALID,0,VALID,95.8111,VALID,0,VALID,20.0538,VALID,135,VALID,0,
2015-01-14, 00:09:04,VALID,918.588,VALID,0,VALID,95.8263,VALID,0,VALID,20.0928,VALID,135,VALID,0,
2015-01-14, 00:10:04,VALID,918.561,VALID,0,VALID,95.7958,VALID,0,VALID,20.0928,VALID,137,VALID,0,
2015-01-14, 00:11:04,VALID,918.552,VALID,0,VALID,95.6739,VALID,0,VALID,20.1139,VALID,137,VALID,0,
2015-01-14, 00:12:04,VALID,918.541,VALID,0,VALID,95.5519,VALID,0,VALID,20.0733,VALID,137,VALID,0,
2015-01-14, 00:13:04,VALID,918.52,VALID,0,VALID,95.3918,VALID,0,VALID,20.0733,VALID,136,VALID,0,
2015-01-14, 00:14:04,VALID,918.517,VALID,0,VALID,95.2775,VALID,0,VALID,20.0733,VALID,137,VALID,0,
2015-01-14, 00:15:04,VALID,918.494,VALID,0,VALID,95.1174,VALID,0,VALID,20.0538,VALID,136,VALID,0,
2015-01-14, 00:16:04,VALID,918.479,VALID,0,VALID,94.9878,VALID,0,VALID,20.0733,VALID,137,VALID,0,
2015-01-14, 00:17:04,VALID,918.466,VALID,0,VALID,94.8887,VALID,0,VALID,20.0928,VALID,137,VALID,0,
2015-01-14, 00:18:04,VALID,918.447,VALID,0,VALID,94.82,VALID,0,VALID,20.0733,VALID,137,VALID,0,
2015-01-14, 00:19:04,VALID,918.44,VALID,0,VALID,94.8734,VALID,0,VALID,20.0928,VALID,137,VALID,0,
2015-01-14, 00:20:04,VALID,918.422,VALID,0,VALID,94.9725,VALID,0,VALID,20.1139,VALID,153,VALID,0,
2015-01-14, 00:21:04,VALID,918.42,VALID,0,VALID,95.125,VALID,0,VALID,20.0928,VALID,153,VALID,0,
2015-01-14, 00:22:04,VALID,918.404,VALID,0,VALID,95.2393,VALID,0,VALID,20.0733,VALID,153,VALID,0,
2015-01-14, 00:23:04,VALID,918.419,VALID,0,VALID,95.2851,VALID,0,VALID,20.0928,VALID,153,VALID,0,
2015-01-14, 00:24:04,VALID,918.386,VALID,0,VALID,95.3613,VALID,0,VALID,20.0733,VALID,153,VALID,0,
2015-01-14, 00:25:04,VALID,918.419,VALID,0,VALID,95.4375,VALID,0,VALID,20.0733,VALID,153,VALID,0,
2015-01-14, 00:26:04,VALID,918.428,VALID,0,VALID,95.4757,VALID,0,VALID,20.0733,VALID,153,VALID,0,
2015-01-14, 00:27:04,VALID,918.423,VALID,0,VALID,95.5671,VALID,0,VALID,20.0928,VALID,153,VALID,0,
2015-01-14, 00:28:04,VALID,918.433,VALID,0,VALID,95.5824,VALID,0,VALID,20.0733,VALID,153,VALID,0,
2015-01-14, 00:29:04,VALID,918.447,VALID,0,VALID,95.5976,VALID,0,VALID,20.0928,VALID,153,VALID,0,
2015-01-14, 00:30:04,VALID,918.445,VALID,0,VALID,95.5519,VALID,0,VALID,20.0944,VALID,153,VALID,0,
2015-01-14, 00:31:04,VALID,918.44,VALID,0,VALID,95.529,VALID,0,VALID,20.0928,VALID,153,VALID,0,
2015-01-14, 00:32:04,VALID,918.456,VALID,0,VALID,95.4985,VALID,0,VALID,20.0733,VALID,153,VALID,0,
2015-01-14, 00:33:04,VALID,918.435,VALID,0,VALID,95.468,VALID,0,VALID,20.0538,VALID,153,VALID,0,
2015-01-14, 00:34:04,VALID,918.443,VALID,0,VALID,95.468,VALID,0,VALID,20.0538,VALID,153,VALID,0,
2015-01-14, 00:35:04,VALID,918.466,VALID,0,VALID,95.529,VALID,0,VALID,20.0343,VALID,153,VALID,0,
2015-01-14, 00:36:04,VALID,918.404,VALID,0,VALID,95.5214,VALID,0,VALID,20.0343,VALID,153,VALID,0,
2015-01-14, 00:37:04,VALID,918.448,VALID,0,VALID,95.5976,VALID,0,VALID,20.0148,VALID,153,VALID,0,
2015-01-14, 00:38:04,VALID,918.425,VALID,0,VALID,95.6662,VALID,0,VALID,19.9773,VALID,136,VALID,0,
2015-01-14, 00:39:04,VALID,918.448,VALID,0,VALID,95.7882,VALID,0,VALID,19.9563,VALID,135,VALID,0,
2015-01-14, 00:40:04,VALID,918.409,VALID,0,VALID,95.9026,VALID,0,VALID,19.8978,VALID,135,VALID,0,
2015-01-14, 00:41:04,VALID,918.434,VALID,0,VALID,96.0017,VALID,0,VALID,19.8783,VALID,136,VALID,0,
2015-01-14, 00:42:04,VALID,918.444,VALID,0,VALID,96.0703,VALID,0,VALID,19.8393,VALID,136,VALID,0,
2015-01-14, 00:43:04,VALID,918.452,VALID,0,VALID,96.1999,VALID,0,VALID,19.8198,VALID,136,VALID,0,
2015-01-14, 00:44:04,VALID,918.439,VALID,0,VALID,96.2609,VALID,0,VALID,19.8198,VALID,136,VALID,0,
2015-01-14, 00:45:04,VALID,918.447,VALID,0,VALID,96.3142,VALID,0,VALID,19.8198,VALID,136,VALID,0,
2015-01-14, 00:46:04,VALID,918.463,VALID,0,VALID,96.3752,VALID,0,VALID,19.8018,VALID,136,VALID,0,
2015-01-14, 00:47:04,VALID,918.471,VALID,0,VALID,96.4133,VALID,0,VALID,19.7808,VALID,136,VALID,0,
2015-01-14, 00:48:04,VALID,918.464,VALID,0,VALID,96.4972,VALID,0,VALID,19.7808,VALID,136,VALID,0,
2015-01-14, 00:49:04,VALID,918.462,VALID,0,VALID,96.5353,VALID,0,VALID,19.7808,VALID,135,VALID,0,
2015-01-14, 00:50:04,VALID,918.466,VALID,0,VALID,96.5734,VALID,0,VALID,19.7808,VALID,136,VALID,0,
2015-01-14, 00:51:04,VALID,918.476,VALID,0,VALID,96.5963,VALID,0,VALID,19.7613,VALID,135,VALID,0,
2015-01-14, 00:52:04,VALID,918.456,VALID,0,VALID,96.6344,VALID,0,VALID,19.7808,VALID,136,VALID,0,
2015-01-14, 00:53:04,VALID,918.457,VALID,0,VALID,96.6649,VALID,0,VALID,19.8003,VALID,136,VALID,0,
2015-01-14, 00:54:04,VALID,918.46,VALID,0,VALID,96.6725,VALID,0,VALID,19.8003,VALID,135,VALID,0,
2015-01-14, 00:55:04,VALID,918.466,VALID,0,VALID,96.6725,VALID,0,VALID,19.8003,VALID,135,VALID,0,
2015-01-14, 00:56:04,VALID,918.459,VALID,0,VALID,96.6497,VALID,0,VALID,19.8213,VALID,135,VALID,0,
2015-01-14, 00:57:04,VALID,918.45,VALID,0,VALID,96.6192,VALID,0,VALID,19.8003,VALID,136,VALID,0,
2015-01-14, 00:58:04,VALID,918.464,VALID,0,VALID,96.6192,VALID,0,VALID,19.8003,VALID,136,VALID,0,
2015-01-14, 00:59:04,VALID,918.456,VALID,0,VALID,96.6573,VALID,0,VALID,19.8003,VALID,136,VALID,0,
2015-01-14, 01:00:04,VALID,918.422,VALID,0,VALID,96.6497,VALID,0,VALID,19.7808,VALID,135,VALID,0,
2015-01-14, 01:01:04,VALID,918.411,VALID,0,VALID,96.642,VALID,0,VALID,19.7628,VALID,136,VALID,0,
2015-01-14, 01:02:04,VALID,918.4,VALID,0,VALID,96.6649,VALID,0,VALID,19.7418,VALID,135,VALID,0,
2015-01-14, 01:03:04,VALID,918.353,VALID,0,VALID,96.7107,VALID,0,VALID,19.7628,VALID,49,VALID,0,
2015-01-14, 01:04:04,VALID,918.388,VALID,0,VALID,96.7793,VALID,0,VALID,19.7823,VALID,49,VALID,0,
2015-01-14, 01:05:04,VALID,918.356,VALID,0,VALID,96.825,VALID,0,VALID,19.7823,VALID,49,VALID,0,
2015-01-14, 01:06:04,VALID,918.368,VALID,0,VALID,96.8631,VALID,0,VALID,19.7823,VALID,49,VALID,0,
2015-01-14, 01:07:04,VALID,918.351,VALID,0,VALID,96.9089,VALID,0,VALID,19.7808,VALID,49,VALID,0,
2015-01-14, 01:08:04,VALID,918.313,VALID,0,VALID,96.9698,VALID,0,VALID,19.8003,VALID,49,VALID,0,
2015-01-14, 01:09:04,VALID,918.314,VALID,0,VALID,96.9927,VALID,0,VALID,19.8003,VALID,49,VALID,0,
2015-01-14, 01:10:05,VALID,918.296,VALID,0,VALID,96.9851,VALID,0,VALID,19.8393,VALID,49,VALID,0,
2015-01-14, 01:11:05,VALID,918.277,VALID,0,VALID,96.9851,VALID,0.107441,VALID,19.8378,VALID,49,VALID,0,
2015-01-14, 01:12:05,VALID,918.26,VALID,0,VALID,96.9851,VALID,0.107441,VALID,19.8588,VALID,49,VALID,0,
2015-01-14, 01:13:05,VALID,918.263,VALID,0,VALID,96.9927,VALID,0.107441,VALID,19.8573,VALID,49,VALID,0,
2015-01-14, 01:14:05,VALID,918.259,VALID,0,VALID,97.0003,VALID,0.107441,VALID,19.8978,VALID,49,VALID,0,
2015-01-14, 01:15:05,VALID,918.284,VALID,0,VALID,97.008,VALID,0.107441,VALID,19.9158,VALID,49,VALID,0,
2015-01-14, 01:16:05,VALID,918.265,VALID,0,VALID,96.9851,VALID,0.107441,VALID,19.9158,VALID,49,VALID,0,
2015-01-14, 01:17:05,VALID,918.262,VALID,0,VALID,96.9622,VALID,0.107441,VALID,19.9158,VALID,49,VALID,0,
2015-01-14, 01:18:05,VALID,918.273,VALID,0,VALID,96.947,VALID,0.107441,VALID,19.9158,VALID,50,VALID,0,
2015-01-14, 01:19:05,VALID,918.271,VALID,0,VALID,96.8936,VALID,0.107441,VALID,19.9158,VALID,50,VALID,0,
2015-01-14, 01:20:05,VALID,918.243,VALID,0,VALID,96.8555,VALID,0.107441,VALID,19.8963,VALID,50,VALID,0,
2015-01-14, 01:21:05,VALID,918.249,VALID,0,VALID,96.7945,VALID,0.107441,VALID,19.8963,VALID,66,VALID,0,
2015-01-14, 01:22:05,VALID,918.269,VALID,0,VALID,96.7716,VALID,0.107441,VALID,19.8768,VALID,67,VALID,0,
2015-01-14, 01:23:05,VALID,918.26,VALID,0,VALID,96.7716,VALID,0,VALID,19.8378,VALID,67,VALID,0,
2015-01-14, 01:24:05,VALID,918.222,VALID,0,VALID,96.7259,VALID,0,VALID,19.8783,VALID,67,VALID,0,
2015-01-14, 01:25:05,VALID,918.213,VALID,0,VALID,96.7107,VALID,0,VALID,19.8378,VALID,67,VALID,0,
2015-01-14, 01:26:05,VALID,918.18,VALID,0,VALID,96.703,VALID,0,VALID,19.8198,VALID,67,VALID,0,
2015-01-14, 01:27:05,VALID,918.161,VALID,0,VALID,96.7107,VALID,0,VALID,19.8003,VALID,98,VALID,0,
2015-01-14, 01:28:05,VALID,918.119,VALID,0,VALID,96.7259,VALID,0,VALID,19.8003,VALID,98,VALID,0,
2015-01-14, 01:29:05,VALID,918.123,VALID,0,VALID,96.7259,VALID,0,VALID,19.7808,VALID,98,VALID,0,
2015-01-14, 01:30:05,VALID,918.103,VALID,0,VALID,96.7335,VALID,0,VALID,19.7808,VALID,98,VALID,0,
2015-01-14, 01:31:05,VALID,918.078,VALID,0,VALID,96.764,VALID,0,VALID,19.7613,VALID,98,VALID,0,
2015-01-14, 01:32:05,VALID,918.081,VALID,0,VALID,96.7793,VALID,0,VALID,19.7613,VALID,98,VALID,0,
2015-01-14, 01:33:05,VALID,918.06,VALID,0,VALID,96.8098,VALID,0,VALID,19.7613,VALID,98,VALID,0,
2015-01-14, 01:34:05,VALID,918.066,VALID,0,VALID,96.8326,VALID,0,VALID,19.7628,VALID,98,VALID,0,
2015-01-14, 01:35:05,VALID,918.039,VALID,0,VALID,96.8479,VALID,0,VALID,19.7418,VALID,98,VALID,0,
2015-01-14, 01:36:05,VALID,918.063,VALID,0,VALID,96.8403,VALID,0,VALID,19.7613,VALID,98,VALID,0,
2015-01-14, 01:37:05,VALID,918.038,VALID,0,VALID,96.886,VALID,0,VALID,19.7613,VALID,98,VALID,0,
2015-01-14, 01:38:05,VALID,918.01,VALID,0,VALID,96.8936,VALID,0,VALID,19.7418,VALID,98,VALID,0,
2015-01-14, 01:39:05,VALID,917.977,VALID,0,VALID,96.9317,VALID,0,VALID,19.8018,VALID,98,VALID,0,
2015-01-14, 01:40:05,VALID,917.946,VALID,0,VALID,96.9012,VALID,0,VALID,19.7808,VALID,98,VALID,0,
2015-01-14, 01:41:05,VALID,917.922,VALID,0,VALID,96.9241,VALID,0,VALID,19.7613,VALID,98,VALID,0,
2015-01-14, 01:42:05,VALID,917.927,VALID,0,VALID,96.9241,VALID,0,VALID,19.7223,VALID,98,VALID,0,
2015-01-14, 01:43:05,VALID,917.869,VALID,0,VALID,96.9317,VALID,0,VALID,19.7028,VALID,98,VALID,0,
2015-01-14, 01:44:05,VALID,917.897,VALID,0,VALID,96.9241,VALID,0,VALID,19.6638,VALID,104,VALID,0,
2015-01-14, 01:45:05,VALID,917.891,VALID,0,VALID,96.9546,VALID,0,VALID,19.6248,VALID,106,VALID,0,
2015-01-14, 01:46:05,VALID,917.87,VALID,0,VALID,97.0003,VALID,0,VALID,19.5858,VALID,101,VALID,0,
2015-01-14, 01:47:05,VALID,917.853,VALID,0,VALID,97.0461,VALID,0,VALID,19.5678,VALID,106,VALID,0,
2015-01-14, 01:48:05,VALID,917.846,VALID,0,VALID,97.0994,VALID,0,VALID,19.5273,VALID,118,VALID,0,
2015-01-14, 01:49:05,VALID,917.837,VALID,0,VALID,97.1681,VALID,0,VALID,19.4883,VALID,118,VALID,0,
2015-01-14, 01:50:05,VALID,917.842,VALID,0,VALID,97.2519,VALID,0,VALID,19.4493,VALID,126,VALID,0,
2015-01-14, 01:51:05,VALID,917.836,VALID,0,VALID,97.29,VALID,0,VALID,19.4703,VALID,126,VALID,0,
2015-01-14, 01:52:05,VALID,917.794,VALID,0,VALID,97.3586,VALID,0,VALID,19.4298,VALID,126,VALID,0,
2015-01-14, 01:53:05,VALID,917.765,VALID,0,VALID,97.3968,VALID,0,VALID,19.4508,VALID,126,VALID,0,
2015-01-14, 01:54:05,VALID,917.77,VALID,0,VALID,97.4501,VALID,0,VALID,19.4493,VALID,126,VALID,0,
2015-01-14, 01:55:05,VALID,917.695,VALID,0,VALID,97.5035,VALID,0,VALID,19.4703,VALID,126,VALID,0,
2015-01-14, 01:56:05,VALID,917.695,VALID,0,VALID,97.534,VALID,0,VALID,19.4508,VALID,126,VALID,0,
2015-01-14, 01:57:05,VALID,917.674,VALID,0,VALID,97.5873,VALID,0,VALID,19.4298,VALID,126,VALID,0,
2015-01-14, 01:58:05,VALID,917.684,VALID,0,VALID,97.595,VALID,0,VALID,19.4103,VALID,123,VALID,0,
2015-01-14, 01:59:05,VALID,917.711,VALID,0,VALID,97.595,VALID,0,VALID,19.3908,VALID,120,VALID,0,
2015-01-14, 02:00:05,VALID,917.702,VALID,0,VALID,97.6178,VALID,0,VALID,19.3923,VALID,120,VALID,0,
2015-01-14, 02:01:05,VALID,917.693,VALID,0,VALID,97.6407,VALID,0,VALID,19.3518,VALID,120,VALID,0,
2015-01-14, 02:02:05,VALID,917.69,VALID,0,VALID,97.6636,VALID,0,VALID,19.3713,VALID,120,VALID,0,
2015-01-14, 02:03:05,VALID,917.682,VALID,0,VALID,97.6865,VALID,0,VALID,19.3923,VALID,120,VALID,0,
2015-01-14, 02:04:05,VALID,917.69,VALID,0,VALID,97.7093,VALID,0,VALID,19.3908,VALID,120,VALID,0,
2015-01-14, 02:05:05,VALID,917.689,VALID,0,VALID,97.7169,VALID,0,VALID,19.4118,VALID,125,VALID,0,
2015-01-14, 02:06:05,VALID,917.687,VALID,0,VALID,97.7322,VALID,0,VALID,19.4103,VALID,125,VALID,0,
2015-01-14, 02:07:05,VALID,917.686,VALID,0,VALID,97.7322,VALID,0,VALID,19.4298,VALID,125,VALID,0,
2015-01-14, 02:08:05,VALID,917.702,VALID,0,VALID,97.7322,VALID,0,VALID,19.4298,VALID,125,VALID,0,
2015-01-14, 02:09:05,VALID,917.683,VALID,0,VALID,97.7398,VALID,0,VALID,19.4493,VALID,126,VALID,0,
2015-01-14, 02:10:05,VALID,917.694,VALID,0,VALID,97.7551,VALID,0,VALID,19.4298,VALID,125,VALID,0,
2015-01-14, 02:11:05,VALID,917.707,VALID,0,VALID,97.7551,VALID,0,VALID,19.4103,VALID,125,VALID,0,
2015-01-14, 02:12:05,VALID,917.74,VALID,0,VALID,97.7703,VALID,0,VALID,19.4103,VALID,125,VALID,0,
2015-01-14, 02:13:05,VALID,917.755,VALID,0,VALID,97.7474,VALID,0,VALID,19.4298,VALID,125,VALID,0,
2015-01-14, 02:14:05,VALID,917.765,VALID,0,VALID,97.7627,VALID,0,VALID,19.4103,VALID,125,VALID,0,
2015-01-14, 02:15:05,VALID,917.761,VALID,0,VALID,97.7779,VALID,0,VALID,19.3908,VALID,125,VALID,0,
2015-01-14, 02:16:05,VALID,917.786,VALID,0,VALID,97.7322,VALID,0,VALID,19.4103,VALID,125,VALID,0,
2015-01-14, 02:17:05,VALID,917.755,VALID,0,VALID,97.7474,VALID,0,VALID,19.3908,VALID,125,VALID,0,
2015-01-14, 02:18:05,VALID,917.754,VALID,0,VALID,97.7856,VALID,0,VALID,19.3908,VALID,125,VALID,0,
2015-01-14, 02:19:05,VALID,917.753,VALID,0,VALID,97.7703,VALID,0,VALID,19.3908,VALID,125,VALID,0,
2015-01-14, 02:20:05,VALID,917.747,VALID,0,VALID,97.7703,VALID,0,VALID,19.3908,VALID,119,VALID,0,
2015-01-14, 02:21:05,VALID,917.718,VALID,0,VALID,97.7779,VALID,0,VALID,19.3908,VALID,119,VALID,0,
2015-01-14, 02:22:05,VALID,917.711,VALID,0,VALID,97.7627,VALID,0,VALID,19.4103,VALID,119,VALID,0,
2015-01-14, 02:23:05,VALID,917.703,VALID,0,VALID,97.7779,VALID,0,VALID,19.3908,VALID,119,VALID,0,
2015-01-14, 02:24:05,VALID,917.7,VALID,0,VALID,97.7779,VALID,0,VALID,19.4103,VALID,119,VALID,0,
2015-01-14, 02:25:05,VALID,917.711,VALID,0,VALID,97.7703,VALID,0,VALID,19.4103,VALID,119,VALID,0,
2015-01-14, 02:26:05,VALID,917.702,VALID,0,VALID,97.7551,VALID,0,VALID,19.4103,VALID,119,VALID,0,
2015-01-14, 02:27:05,VALID,917.729,VALID,0,VALID,97.7551,VALID,0,VALID,19.3908,VALID,119,VALID,0,
2015-01-14, 02:28:05,VALID,917.703,VALID,0,VALID,97.7322,VALID,0,VALID,19.4118,VALID,119,VALID,0,
2015-01-14, 02:29:05,VALID,917.719,VALID,0,VALID,97.7398,VALID,0,VALID,19.4298,VALID,119,VALID,0,
2015-01-14, 02:30:05,VALID,917.754,VALID,0,VALID,97.7398,VALID,0,VALID,19.4298,VALID,119,VALID,0,
2015-01-14, 02:31:05,VALID,917.733,VALID,0,VALID,97.7474,VALID,0,VALID,19.4508,VALID,119,VALID,0,
2015-01-14, 02:32:05,VALID,917.752,VALID,0,VALID,97.7322,VALID,0,VALID,19.4298,VALID,119,VALID,0,
2015-01-14, 02:33:05,VALID,917.744,VALID,0,VALID,97.7093,VALID,0,VALID,19.4508,VALID,119,VALID,0,
2015-01-14, 02:34:05,VALID,917.752,VALID,0,VALID,97.7017,VALID,0,VALID,19.4298,VALID,119,VALID,0,
2015-01-14, 02:35:05,VALID,917.739,VALID,0,VALID,97.7017,VALID,0,VALID,19.4493,VALID,119,VALID,0,
2015-01-14, 02:36:05,VALID,917.724,VALID,0,VALID,97.7017,VALID,0,VALID,19.4688,VALID,119,VALID,0,
2015-01-14, 02:37:05,VALID,917.712,VALID,0,VALID,97.6941,VALID,0,VALID,19.4688,VALID,119,VALID,0,
2015-01-14, 02:38:05,VALID,917.71,VALID,0,VALID,97.656,VALID,0,VALID,19.4493,VALID,119,VALID,0,
2015-01-14, 02:39:05,VALID,917.722,VALID,0,VALID,97.6483,VALID,0,VALID,19.4103,VALID,119,VALID,0,
2015-01-14, 02:40:05,VALID,917.708,VALID,0,VALID,97.6407,VALID,0,VALID,19.4103,VALID,119,VALID,0,
2015-01-14, 02:41:05,VALID,917.694,VALID,0,VALID,97.6178,VALID,0,VALID,19.3908,VALID,119,VALID,0,
2015-01-14, 02:42:05,VALID,917.678,VALID,0,VALID,97.6331,VALID,0,VALID,19.3713,VALID,119,VALID,0,
2015-01-14, 02:43:05,VALID,917.673,VALID,0,VALID,97.6178,VALID,0,VALID,19.3713,VALID,119,VALID,0,
2015-01-14, 02:44:05,VALID,917.637,VALID,0,VALID,97.6331,VALID,0,VALID,19.3713,VALID,106,VALID,0,
2015-01-14, 02:45:05,VALID,917.655,VALID,0,VALID,97.6407,VALID,0,VALID,19.3908,VALID,95,VALID,0,
2015-01-14, 02:46:05,VALID,917.603,VALID,0,VALID,97.6407,VALID,0,VALID,19.4103,VALID,95,VALID,0,
2015-01-14, 02:47:05,VALID,917.582,VALID,0,VALID,97.6407,VALID,0,VALID,19.3908,VALID,95,VALID,0,
2015-01-14, 02:48:05,VALID,917.537,VALID,0,VALID,97.6407,VALID,0,VALID,19.3713,VALID,100,VALID,0,
2015-01-14, 02:49:05,VALID,917.542,VALID,0,VALID,97.6407,VALID,0,VALID,19.3713,VALID,95,VALID,0,
2015-01-14, 02:50:05,VALID,917.499,VALID,0,VALID,97.6483,VALID,0,VALID,19.3713,VALID,96,VALID,0,
2015-01-14, 02:51:05,VALID,917.547,VALID,0,VALID,97.656,VALID,0,VALID,19.3518,VALID,104,VALID,0,
2015-01-14, 02:52:05,VALID,917.483,VALID,0,VALID,97.6483,VALID,0,VALID,19.3728,VALID,104,VALID,0,
2015-01-14, 02:53:05,VALID,917.494,VALID,0,VALID,97.6636,VALID,0,VALID,19.3323,VALID,115,VALID,0,
2015-01-14, 02:54:05,VALID,917.459,VALID,0,VALID,97.6636,VALID,0,VALID,19.3713,VALID,118,VALID,0,
2015-01-14, 02:55:05,VALID,917.463,VALID,0,VALID,97.6636,VALID,0,VALID,19.3728,VALID,118,VALID,0,
2015-01-14, 02:56:05,VALID,917.471,VALID,0,VALID,97.6712,VALID,0.107441,VALID,19.3908,VALID,118,VALID,0,
2015-01-14, 02:57:05,VALID,917.457,VALID,0,VALID,97.6636,VALID,0.107441,VALID,19.3908,VALID,118,VALID,0,
2015-01-14, 02:58:05,VALID,917.435,VALID,0,VALID,97.6636,VALID,0.107441,VALID,19.4088,VALID,118,VALID,0,
2015-01-14, 02:59:05,VALID,917.442,VALID,0,VALID,97.6636,VALID,0.107441,VALID,19.4283,VALID,118,VALID,0,
2015-01-14, 03:00:05,VALID,917.473,VALID,0,VALID,97.6407,VALID,0.107441,VALID,19.4673,VALID,118,VALID,0,
2015-01-14, 03:01:05,VALID,917.442,VALID,0,VALID,97.6483,VALID,0.107441,VALID,19.4868,VALID,118,VALID,0,
2015-01-14, 03:02:05,VALID,917.491,VALID,0,VALID,97.6255,VALID,0,VALID,19.5063,VALID,118,VALID,0,
2015-01-14, 03:03:05,VALID,917.504,VALID,0,VALID,97.6331,VALID,0.107441,VALID,19.5258,VALID,118,VALID,0,
2015-01-14, 03:04:05,VALID,917.476,VALID,0,VALID,97.656,VALID,0.107441,VALID,19.5258,VALID,118,VALID,0,
2015-01-14, 03:05:05,VALID,917.456,VALID,0,VALID,97.6483,VALID,0.107441,VALID,19.5258,VALID,118,VALID,0,
2015-01-14, 03:06:05,VALID,917.473,VALID,0,VALID,97.6407,VALID,0.107441,VALID,19.5258,VALID,118,VALID,0,
2015-01-14, 03:07:05,VALID,917.453,VALID,0,VALID,97.6331,VALID,0,VALID,19.5063,VALID,118,VALID,0,
2015-01-14, 03:08:05,VALID,917.452,VALID,0,VALID,97.6255,VALID,0.107441,VALID,19.5063,VALID,118,VALID,0,
2015-01-14, 03:09:05,VALID,917.425,VALID,0,VALID,97.6331,VALID,0.107441,VALID,19.5258,VALID,118,VALID,0,
2015-01-14, 03:10:05,VALID,917.406,VALID,0,VALID,97.6483,VALID,0.107441,VALID,19.5663,VALID,118,VALID,0,
2015-01-14, 03:11:05,VALID,917.432,VALID,0,VALID,97.6636,VALID,0,VALID,19.5483,VALID,118,VALID,0,
2015-01-14, 03:12:05,VALID,917.414,VALID,0,VALID,97.6483,VALID,0,VALID,19.5288,VALID,118,VALID,0,
2015-01-14, 03:13:05,VALID,917.395,VALID,0,VALID,97.6331,VALID,0,VALID,19.4883,VALID,118,VALID,0,
2015-01-14, 03:14:05,VALID,917.437,VALID,0,VALID,97.6483,VALID,0,VALID,19.5483,VALID,118,VALID,0,
2015-01-14, 03:15:05,VALID,917.395,VALID,0,VALID,97.656,VALID,0,VALID,19.5288,VALID,118,VALID,0,
2015-01-14, 03:16:05,VALID,917.369,VALID,0,VALID,97.6712,VALID,0,VALID,19.5273,VALID,118,VALID,0,
2015-01-14, 03:17:05,VALID,917.389,VALID,0,VALID,97.6636,VALID,0,VALID,19.5483,VALID,118,VALID,0,
2015-01-14, 03:18:05,VALID,917.378,VALID,0,VALID,97.6636,VALID,0,VALID,19.5483,VALID,118,VALID,0,
2015-01-14, 03:19:05,VALID,917.386,VALID,0,VALID,97.7017,VALID,0,VALID,19.5273,VALID,118,VALID,0,
2015-01-14, 03:20:05,VALID,917.398,VALID,0,VALID,97.6636,VALID,0,VALID,19.5483,VALID,118,VALID,0,
2015-01-14, 03:21:05,VALID,917.422,VALID,0,VALID,97.6712,VALID,0,VALID,19.5483,VALID,118,VALID,0,
2015-01-14, 03:22:05,VALID,917.401,VALID,0,VALID,97.6712,VALID,0,VALID,19.5093,VALID,118,VALID,0,
2015-01-14, 03:23:05,VALID,917.444,VALID,0,VALID,97.6407,VALID,0,VALID,19.5093,VALID,118,VALID,0,
2015-01-14, 03:24:05,VALID,917.439,VALID,0,VALID,97.6483,VALID,0,VALID,19.5288,VALID,118,VALID,0,
2015-01-14, 03:25:05,VALID,917.433,VALID,0,VALID,97.6788,VALID,0,VALID,19.5288,VALID,118,VALID,0,
2015-01-14, 03:26:05,VALID,917.441,VALID,0,VALID,97.656,VALID,0,VALID,19.5093,VALID,118,VALID,0,
2015-01-14, 03:27:05,VALID,917.43,VALID,0,VALID,97.656,VALID,0,VALID,19.4688,VALID,118,VALID,0,
2015-01-14, 03:28:05,VALID,917.424,VALID,0,VALID,97.6102,VALID,0,VALID,19.4883,VALID,118,VALID,0,
2015-01-14, 03:29:05,VALID,917.439,VALID,0,VALID,97.6026,VALID,0,VALID,19.5288,VALID,118,VALID,0,
2015-01-14, 03:30:05,VALID,917.469,VALID,0,VALID,97.595,VALID,0,VALID,19.5273,VALID,118,VALID,0,
2015-01-14, 03:31:05,VALID,917.423,VALID,0,VALID,97.5721,VALID,0,VALID,19.5273,VALID,118,VALID,0,
2015-01-14, 03:32:05,VALID,917.427,VALID,0,VALID,97.5645,VALID,0,VALID,19.5093,VALID,118,VALID,0,
2015-01-14, 03:33:05,VALID,917.404,VALID,0,VALID,97.5569,VALID,0,VALID,19.5288,VALID,118,VALID,0,
2015-01-14, 03:34:05,VALID,917.417,VALID,0,VALID,97.5492,VALID,0,VALID,19.5483,VALID,118,VALID,0,
2015-01-14, 03:35:05,VALID,917.43,VALID,0,VALID,97.534,VALID,0,VALID,19.5678,VALID,118,VALID,0,
2015-01-14, 03:36:05,VALID,917.422,VALID,0,VALID,97.5187,VALID,0,VALID,19.5678,VALID,118,VALID,0,
2015-01-14, 03:37:05,VALID,917.447,VALID,0,VALID,97.5264,VALID,0,VALID,19.5858,VALID,118,VALID,0,
2015-01-14, 03:38:05,VALID,917.447,VALID,0,VALID,97.534,VALID,0,VALID,19.5873,VALID,118,VALID,0,
2015-01-14, 03:39:05,VALID,917.468,VALID,0,VALID,97.4959,VALID,0,VALID,19.6053,VALID,118,VALID,0,
2015-01-14, 03:40:05,VALID,917.473,VALID,0,VALID,97.4882,VALID,0,VALID,19.6053,VALID,118,VALID,0,
2015-01-14, 03:41:05,VALID,917.477,VALID,0,VALID,97.4882,VALID,0,VALID,19.6263,VALID,118,VALID,0,
2015-01-14, 03:42:05,VALID,917.474,VALID,0,VALID,97.4577,VALID,0,VALID,19.5468,VALID,115,VALID,0,
2015-01-14, 03:43:05,VALID,917.491,VALID,0,VALID,97.4273,VALID,0,VALID,19.5288,VALID,115,VALID,0,
2015-01-14, 03:44:05,VALID,917.503,VALID,0,VALID,97.3968,VALID,0,VALID,19.4898,VALID,115,VALID,0,
2015-01-14, 03:45:05,VALID,917.523,VALID,0,VALID,97.3739,VALID,0,VALID,19.4703,VALID,115,VALID,0,
2015-01-14, 03:46:05,VALID,917.521,VALID,0,VALID,97.3968,VALID,0,VALID,19.4703,VALID,115,VALID,0,
2015-01-14, 03:47:05,VALID,917.511,VALID,0,VALID,97.412,VALID,0,VALID,19.4313,VALID,115,VALID,0,
2015-01-14, 03:48:05,VALID,917.492,VALID,0,VALID,97.3968,VALID,0,VALID,19.4103,VALID,115,VALID,0,
2015-01-14, 03:49:05,VALID,917.525,VALID,0,VALID,97.4044,VALID,0,VALID,19.4103,VALID,115,VALID,0,
2015-01-14, 03:50:04,VALID,917.531,VALID,0,VALID,97.3968,VALID,0,VALID,19.4118,VALID,115,VALID,0,
2015-01-14, 03:51:04,VALID,917.487,VALID,0,VALID,97.3891,VALID,0,VALID,19.3923,VALID,115,VALID,0,
2015-01-14, 03:52:04,VALID,917.539,VALID,0,VALID,97.412,VALID,0,VALID,19.3923,VALID,117,VALID,0,
2015-01-14, 03:53:04,VALID,917.523,VALID,0,VALID,97.4273,VALID,0,VALID,19.3908,VALID,117,VALID,0,
2015-01-14, 03:54:04,VALID,917.516,VALID,0,VALID,97.4425,VALID,0,VALID,19.4118,VALID,117,VALID,0,
2015-01-14, 03:55:04,VALID,917.529,VALID,0,VALID,97.4654,VALID,0,VALID,19.4118,VALID,117,VALID,0,
2015-01-14, 03:56:04,VALID,917.565,VALID,0,VALID,97.4806,VALID,0,VALID,19.4118,VALID,117,VALID,0,
2015-01-14, 03:57:04,VALID,917.571,VALID,0,VALID,97.4959,VALID,0,VALID,19.4118,VALID,117,VALID,0,
2015-01-14, 03:58:04,VALID,917.607,VALID,0,VALID,97.5035,VALID,0,VALID,19.4118,VALID,117,VALID,0,